KCIKMI Weather Reports


time (UTC)temp
C
wind
direction
speed
KPH
gust
KPH
rain 1hr
cm
rain 24hr
cm
rain mn
cm
humidity
%
barometer
mb
20260903013027 19 349 0.0 0.0 0.00 0.00 0.00 76 1018.0
20260903011526 19 349 0.0 0.0 0.00 0.00 0.00 76 1018.1
20260903010026 20 349 0.0 0.0 0.00 0.00 0.00 76 1018.1
20260903004526 20 349 0.0 0.0 0.00 0.00 0.00 75 1017.9
20260903003026 20 349 0.0 0.0 0.00 0.00 0.00 76 1017.8
20260903001524 20 341 0.0 1.6 0.00 0.00 0.00 74 1018.1
20260903000027 20 360 0.0 0.0 0.00 0.00 0.00 73 1018.2
20260902234528 20 360 0.0 1.6 0.00 0.00 0.00 73 1018.6
20260902233024 20 212 0.0 1.6 0.00 0.00 0.00 73 1018.7
20260902231525 21 214 0.0 0.0 0.00 0.00 0.00 71 1018.7
20260902230022 21 203 0.0 0.0 0.00 0.00 0.00 71 1019.0
20260902224521 21 215 0.0 1.6 0.00 0.03 0.00 69 1018.9
20260902223037 21 189 0.0 0.0 0.00 0.03 0.00 69 1018.9
20260902221522 21 231 0.0 0.0 0.00 0.03 0.00 68 1018.6
20260902220020 22 319 0.0 0.0 0.00 0.03 0.00 67 1018.3
20260902214519 22 280 0.0 3.2 0.00 0.08 0.00 68 1018.2
20260902213019 22 297 0.0 1.6 0.00 0.08 0.00 68 1018.0
20260902211520 23 117 0.0 3.2 0.00 0.08 0.00 67 1018.2
20260902210017 23 333 0.0 1.6 0.00 0.10 0.00 66 1018.5
20260902204531 23 204 0.0 0.0 0.00 0.10 0.00 67 1018.6
20260902203015 23 200 0.0 0.0 0.00 0.10 0.00 66 1018.6
20260902201514 23 198 0.0 1.6 0.00 0.10 0.00 64 1018.5
20260902200011 24 242 0.0 3.2 0.00 0.30 0.00 62 1018.5
20260902194510 25 215 0.0 3.2 0.00 0.30 0.00 62 1018.8
20260902193008 26 189 0.0 6.4 0.00 0.30 0.00 59 1018.8
20260902191506 26 207 0.0 4.8 0.00 0.30 0.00 60 1018.7
20260902190006 26 209 0.0 4.8 0.00 0.46 0.00 59 1018.9
20260902184501 26 183 1.6 4.8 0.00 0.46 0.00 60 1019.0
20260902183111 26 231 0.0 4.8 0.00 0.46 0.00 61 1018.9
20260902181612 26 306 0.0 3.2 0.00 0.46 0.00 61 1018.7
20260902180056 25 121 0.0 4.8 0.00 0.46 0.00 61 1018.9
20260902174557 26 228 0.0 1.6 0.00 0.69 0.00 59 1019.0
20260902173101 25 179 0.0 3.2 0.00 0.69 0.00 62 1018.9
20260902171549 25 350 0.0 3.2 0.00 0.69 0.00 66 1019.0
20260902170051 25 179 0.0 4.8 0.00 0.69 0.00 66 1019.2
20260902164544 24 219 0.0 1.6 0.00 0.69 0.00 68 1019.3
20260902163044 24 11 0.0 1.6 0.00 0.69 0.00 68 1019.4
20260902161539 23 321 0.0 1.6 0.00 0.69 0.00 70 1019.4
20260902160037 23 4 0.0 3.2 0.00 0.69 0.00 69 1019.7
20260902154538 22 31 0.0 1.6 0.00 1.22 0.00 71 1020.0
20260902153034 22 244 0.0 1.6 0.00 1.22 0.00 70 1019.9
20260902151536 22 360 0.0 3.2 0.00 1.22 0.00 72 1020.1
20260902150029 22 285 0.0 1.6 0.00 1.22 0.00 72 1019.9
20260902144526 21 323 0.0 8.0 0.00 2.01 0.00 76 1020.1
20260902143023 21 351 0.0 6.4 0.00 2.01 0.00 81 1019.8
20260902141521 21 334 3.2 6.4 0.00 2.01 0.00 81 1019.7
20260902140020 20 349 0.0 1.6 0.00 2.01 0.00 83 1019.6
20260902134518 20 338 0.0 1.6 0.00 2.44 0.00 85 1019.2
20260902133015 20 344 0.0 4.8 0.00 2.44 0.00 85 1019.1
20260902131513 20 8 3.2 6.4 0.00 2.44 0.00 86 1019.1
20260902130012 19 315 0.0 3.2 0.00 2.64 0.00 87 1019.3
20260902124510 19 342 0.0 6.4 0.00 2.64 0.00 88 1019.4
20260902123008 18 340 0.0 4.8 0.00 2.64 0.00 90 1019.5
20260902121506 18 12 0.0 0.0 0.00 2.64 0.00 91 1019.4
20260902120003 18 4 0.0 4.8 0.00 2.64 0.00 93 1019.6
20260902114502 18 351 0.0 4.8 0.00 2.64 0.00 94 1019.8
20260902113057 17 356 0.0 0.0 0.00 2.64 0.00 94 1019.7
20260902111558 17 347 0.0 0.0 0.00 2.64 0.00 95 1019.5
20260902110059 17 351 0.0 0.0 0.00 2.64 0.00 95 1019.5
20260902104602 17 351 0.0 0.0 0.00 2.64 0.00 95 1019.2
20260902103105 16 351 0.0 0.0 0.00 2.64 0.00 95 1019.1
20260902101554 16 351 0.0 0.0 0.00 2.64 0.00 95 1018.9
20260902100046 16 351 0.0 0.0 0.00 2.64 0.00 95 1018.8
20260902094544 16 353 0.0 0.0 0.00 2.64 0.00 95 1018.7
20260902093042 16 346 0.0 0.0 0.00 2.64 0.00 95 1018.5
20260902091542 16 346 0.0 0.0 0.00 2.64 0.00 95 1018.4
20260902090042 16 346 0.0 0.0 0.00 2.64 0.00 95 1018.4
20260902084542 16 346 0.0 0.0 0.00 2.64 0.00 94 1018.4
20260902083044 16 343 0.0 0.0 0.00 2.64 0.00 94 1018.3
20260902081539 16 344 0.0 0.0 0.00 2.64 0.00 94 1018.2
20260902080040 16 344 0.0 0.0 0.00 2.64 0.00 93 1018.2
20260902074538 16 351 0.0 0.0 0.00 2.64 0.00 93 1018.3
20260902073036 16 349 0.0 0.0 0.00 2.64 0.00 92 1018.4
20260902071534 16 348 0.0 0.0 0.00 2.64 0.00 93 1018.3
20260902070033 16 343 0.0 0.0 0.00 2.64 0.00 94 1018.2
20260902064533 16 358 0.0 0.0 0.00 2.64 0.00 94 1018.2
20260902063050 16 358 0.0 0.0 0.00 2.64 0.00 94 1017.9
20260902061550 16 358 0.0 0.0 0.00 2.64 0.00 95 1018.1
20260902060038 16 358 0.0 0.0 0.00 2.64 0.00 95 1017.8
20260902054531 16 358 0.0 0.0 0.00 2.64 0.00 96 1017.8
20260902053034 16 358 0.0 0.0 0.00 2.64 0.00 96 1017.7
20260902051528 16 358 0.0 3.2 0.00 2.64 0.00 96 1017.7
20260902050026 16 353 0.0 0.0 0.00 2.64 0.00 97 1017.5
20260902044551 16 340 0.0 0.0 0.00 2.64 0.00 97 1017.5
20260902043022 16 343 0.0 0.0 0.00 2.64 0.00 96 1017.6
20260902041522 16 343 0.0 0.0 0.00 2.64 0.00 96 1017.7
20260902040018 16 343 0.0 0.0 0.00 2.64 2.64 96 1017.5
20260902034516 16 343 0.0 0.0 0.00 2.64 2.64 96 1017.2
20260902033015 16 343 0.0 0.0 0.00 2.64 2.64 96 1017.1
20260902031534 16 340 0.0 0.0 0.00 2.64 2.64 96 1017.1
20260902030011 16 340 0.0 0.0 0.00 2.64 2.64 96 1017.1
20260902024511 16 340 0.0 0.0 0.00 2.64 2.64 96 1016.9
20260902023020 16 339 0.0 0.0 0.00 2.64 2.64 96 1016.9
20260902021508 16 327 0.0 0.0 0.00 2.64 2.64 97 1016.8
20260902020009 16 326 0.0 0.0 0.00 2.64 2.64 97 1016.7
20260902014513 16 326 0.0 0.0 0.00 2.64 2.64 96 1016.8